Skip Page Navigation
NASA JPL Caltech
NASA Logo - Jet Propulsion Laboratory + View the NASA Portal
+ Center for Near-Earth Object Studies
JPL Home Earth Solar System Stars & Galaxies Technology
JPL Solar System Dynamics
BODIES ORBITS EPHEMERIDES TOOLS PHYSICAL DATA DISCOVERY FAQ SITE MAP
JPL Small-Body Database Browser
Search: [ help ]  
72388 (2001 CC16)
Classification: Main-belt Asteroid          SPK-ID: 2072388
Ephemeris | Orbit Diagram | Orbital Elements | Mission Design | Physical Parameters | Discovery Circumstances ]

[ show orbit diagram ]
Orbital Elements at Epoch 2459200.5 (2020-Dec-17.0) TDB
Reference: JPL 21 (heliocentric ecliptic J2000)
 Element Value Uncertainty (1-sigma)   Units 
e .06003617805367647 3.814e-08  
a 2.590547873664689 1.2799e-08 au
q 2.435021280264783 9.5084e-08 au
i 9.881700965960524 3.9826e-06 deg
node 108.3734931270974 2.2513e-05 deg
peri 176.5359267416137 4.0284e-05 deg
M 131.3268927064195 3.3384e-05 deg
tp 2458644.932248758712
(2019-Jun-10.43224876)
0.00014041 TDB
period 1522.950755364113
4.17
1.1286e-05
3.09e-08
d
yr
n .2363832177317708 1.7518e-09 deg/d
Q 2.746074467064596 1.3567e-08 au
  Orbit Determination Parameters
   # obs. used (total)      884  
   data-arc span      7784 days (21.31 yr)  
   first obs. used      1999-10-09  
   last obs. used      2021-01-30  
   planetary ephem.      DE441  
   SB-pert. ephem.      SB441-N16  
   condition code      0  
   norm. resid. RMS      .50345  
   source      ORB  
   producer      Otto Matic  
   solution date      2021-Apr-13 13:01:47  

Additional Information
 Earth MOID = 1.41674 au 
 Jupiter MOID = 2.3684 au 
 T_jup = 3.396 
[ show covariance matrix ]

Ephemeris | Orbit Diagram | Orbital Elements | Mission Design | Physical Parameters | Discovery Circumstances ]

Physical Parameter Table
Parameter Symbol Value Units Sigma Reference Notes
absolute magnitude H 15.35   n/a MPCxxxxx  
diameter diameter 4.280 km 0.131 urn:nasa:pds:neowise_diameters_albedos::2.0[mainbelt] (http://adsabs.harvard.edu/abs/2011ApJ...741...68M)  
rotation period rot_per 4.565042 h n/a LCDB (Rev. 2020-October); Warner et al., 2009 sidereal period (not synodic); Result based on less than full coverage, so that the period may be wrong by 30 percent or so.
Published Reference List:
[Durech, J.; Hanus, J.; Ali-Lagoa, V. (2018) Astron. Astrophys. 617, A57.]
geometric albedo albedo 0.088   0.013 urn:nasa:pds:neowise_diameters_albedos::2.0[mainbelt] (http://adsabs.harvard.edu/abs/2011ApJ...741...68M)  

72388 (2001 CC16)          Discovered 2001-Feb-01 by LINEAR at Socorro
Reference: 20031109/Numbers.arcLast Updated: 2004-04-19

Alternate Designations
 2001 CC16 = 1999 VJ198 
Ephemeris | Orbit Diagram | Orbital Elements | Mission Design | Physical Parameters | Discovery Circumstances ]
ABOUT SSD CREDITS/AWARDS PRIVACY/COPYRIGHT GLOSSARY LINKS
FirstGov 2021-Jun-22 15:39 UT
(server date/time)  
NASA Home Page
Site Manager:   Ryan S. Park
Webmaster  Alan B. Chamberlin